When you browse on this site, cookies collect data to enhance your experience and personalize the content and advertising you see.
Visit our Privacy Policy to learn more. By continuing to use the site, you agree to this use of cookies and data.
  • In United Kingdom
  • List of Countries
  • For 7 days
  • Water Temperature
  • Satellite Maps
  • Weather Map
  • Weather Widgets
  • user-avatar
    Login

    Hourly Weather Top

    Today, 18 July, Thursday

    Time Temperature Precipitation Wind Pressure Humidity
    00:00 +20°C° 0.5 mm 0 mps 679 mmHg 98%
    01:00 +20°C° 0 mm 0 mps 679 mmHg 98%
    02:00 +19°C° 0 mm 0 mps 679 mmHg 98%
    03:00 +19°C° 0 mm 0 mps 678 mmHg 98%
    04:00 +19°C° 0 mm 0 mps 678 mmHg 98%
    05:00 +19°C° 0 mm 0 mps 678 mmHg 98%
    06:00 +20°C° 0 mm 0 mps 679 mmHg 97%
    07:00 +21°C° 0 mm 0 mps 679 mmHg 97%
    08:00 +25°C° 0 mm 1 mps 679 mmHg 86%
    09:00 +27°C° 0 mm 1 mps 680 mmHg 76%
    10:00 +28°C° 0 mm 1 mps 680 mmHg 65%
    11:00 +29°C° 0 mm 1 mps 680 mmHg 62%
    12:00 +30°C° 0 mm 2 mps 679 mmHg 59%
    13:00 +31°C° 0 mm 2 mps 679 mmHg 54%
    14:00 +31°C° 0.1 mm 1 mps 679 mmHg 58%
    15:00 +30°C° 0.1 mm 1 mps 678 mmHg 61%
    16:00 +30°C° 0.1 mm 1 mps 678 mmHg 65%
    17:00 +28°C° 0.2 mm 1 mps 678 mmHg 74%
    18:00 +24°C° 0.2 mm 0 mps 678 mmHg 82%
    19:00 +22°C° 0.2 mm 0 mps 678 mmHg 90%
    20:00 +22°C° 0 mm 0 mps 678 mmHg 91%
    21:00 +21°C° 0 mm 0 mps 679 mmHg 92%
    22:00 +21°C° 0 mm 0 mps 679 mmHg 93%
    23:00 +21°C° 0.2 mm 0 mps 679 mmHg 95%

    Tomorrow, 19 July, Friday

    Time Temperature Precipitation Wind Pressure Humidity
    00:00 +21°C° 0.2 mm 0 mps 679 mmHg 96%
    01:00 +20°C° 0.2 mm 0 mps 679 mmHg 97%
    02:00 +20°C° 0.1 mm 0 mps 679 mmHg 97%
    03:00 +20°C° 0.1 mm 0 mps 678 mmHg 97%
    04:00 +20°C° 0.1 mm 0 mps 678 mmHg 98%
    05:00 +22°C° 0 mm 1 mps 678 mmHg 97%
    06:00 +23°C° 0 mm 1 mps 679 mmHg 96%
    07:00 +23°C° 0 mm 1 mps 679 mmHg 96%
    08:00 +25°C° 0.1 mm 1 mps 680 mmHg 89%
    09:00 +26°C° 0.1 mm 1 mps 680 mmHg 82%
    10:00 +27°C° 0.1 mm 1 mps 681 mmHg 75%
    11:00 +28°C° 0.5 mm 1 mps 680 mmHg 75%
    12:00 +28°C° 0.5 mm 1 mps 680 mmHg 75%
    13:00 +29°C° 0.5 mm 1 mps 679 mmHg 74%
    14:00 +28°C° 1.2 mm 1 mps 679 mmHg 80%
    15:00 +27°C° 1.2 mm 1 mps 678 mmHg 85%
    16:00 +27°C° 1.2 mm 1 mps 678 mmHg 91%
    17:00 +26°C° 0.5 mm 1 mps 678 mmHg 93%
    18:00 +23°C° 0.5 mm 0 mps 678 mmHg 95%
    19:00 +22°C° 0.5 mm 0 mps 679 mmHg 97%
    20:00 +21°C° 0.1 mm 0 mps 679 mmHg 97%
    21:00 +21°C° 0.1 mm 0 mps 680 mmHg 98%
    22:00 +21°C° 0.1 mm 0 mps 680 mmHg 98%
    23:00 +21°C° 0.2 mm 0 mps 680 mmHg 98%

    Day after tomorrow, 20 July, Saturday

    Time Temperature Precipitation Wind Pressure Humidity
    00:00 +21°C° 0.2 mm 0 mps 680 mmHg 98%
    01:00 +23°C° 0.2 mm 1 mps 679 mmHg 99%
    02:00 +22°C° 0 mm 1 mps 679 mmHg 99%
    03:00 +20°C° 0 mm 0 mps 679 mmHg 98%
    04:00 +20°C° 0 mm 0 mps 679 mmHg 98%
    05:00 +20°C° 0 mm 0 mps 679 mmHg 98%
    06:00 +21°C° 0 mm 0 mps 680 mmHg 97%
    07:00 +21°C° 0 mm 0 mps 680 mmHg 97%
    08:00 +25°C° 0.2 mm 1 mps 681 mmHg 89%
    09:00 +27°C° 0.2 mm 1 mps 681 mmHg 81%
    10:00 +28°C° 0.2 mm 1 mps 682 mmHg 72%
    11:00 +29°C° 0.8 mm 1 mps 681 mmHg 74%
    12:00 +29°C° 0.8 mm 1 mps 681 mmHg 76%
    13:00 +29°C° 0.8 mm 1 mps 680 mmHg 78%
    14:00 +29°C° 1.4 mm 1 mps 680 mmHg 81%
    15:00 +28°C° 1.4 mm 1 mps 679 mmHg 84%
    16:00 +28°C° 1.4 mm 1 mps 679 mmHg 88%
    17:00 +26°C° 0.8 mm 1 mps 679 mmHg 91%
    18:00 +23°C° 0.8 mm 0 mps 679 mmHg 94%
    19:00 +22°C° 0.8 mm 0 mps 679 mmHg 97%
    20:00 +22°C° 1.4 mm 0 mps 680 mmHg 97%
    21:00 +21°C° 1.4 mm 0 mps 680 mmHg 97%
    22:00 +21°C° 1.4 mm 0 mps 680 mmHg 97%
    23:00 +21°C° 1 mm 0 mps 680 mmHg 98%

    21 July, Sunday

    Time Temperature Precipitation Wind Pressure Humidity
    00:00 +21°C° 1 mm 0 mps 680 mmHg 98%
    01:00 +20°C° 1 mm 0 mps 680 mmHg 98%
    02:00 +22°C° 0.1 mm 1 mps 679 mmHg 98%
    03:00 +22°C° 0.1 mm 1 mps 679 mmHg 98%
    04:00 +22°C° 0.1 mm 1 mps 679 mmHg 98%
    05:00 +22°C° 0 mm 1 mps 679 mmHg 98%
    06:00 +23°C° 0 mm 1 mps 680 mmHg 98%
    07:00 +23°C° 0 mm 1 mps 680 mmHg 98%
    08:00 +24°C° 0.1 mm 1 mps 680 mmHg 95%
    09:00 +24°C° 0.1 mm 1 mps 680 mmHg 93%
    10:00 +25°C° 0.1 mm 1 mps 681 mmHg 90%
    11:00 +27°C° 0.3 mm 1 mps 681 mmHg 82%
    12:00 +28°C° 0.3 mm 1 mps 680 mmHg 74%
    13:00 +30°C° 0.3 mm 2 mps 680 mmHg 66%
    14:00 +29°C° 2.1 mm 1 mps 680 mmHg 75%
    15:00 +28°C° 2.1 mm 1 mps 679 mmHg 85%
    16:00 +26°C° 2.1 mm 1 mps 678 mmHg 94%
    17:00 +25°C° 1.3 mm 1 mps 678 mmHg 95%
    18:00 +24°C° 1.3 mm 1 mps 678 mmHg 96%
    19:00 +21°C° 1.3 mm 0 mps 679 mmHg 97%
    20:00 +21°C° 1.6 mm 0 mps 679 mmHg 98%
    21:00 +21°C° 1.6 mm 0 mps 680 mmHg 98%
    22:00 +20°C° 1.6 mm 0 mps 680 mmHg 98%
    23:00 +20°C° 1.2 mm 0 mps 680 mmHg 98%

    22 July, Monday

    Time Temperature Precipitation Wind Pressure Humidity
    00:00 +20°C° 1.2 mm 0 mps 680 mmHg 99%
    01:00 +20°C° 1.2 mm 0 mps 679 mmHg 99%
    02:00 +20°C° 0.9 mm 0 mps 679 mmHg 99%
    03:00 +20°C° 0.9 mm 0 mps 679 mmHg 99%
    04:00 +22°C° 0.9 mm 1 mps 679 mmHg 99%
    05:00 +22°C° 0.6 mm 1 mps 679 mmHg 99%
    06:00 +22°C° 0.6 mm 1 mps 680 mmHg 99%
    07:00 +22°C° 0.6 mm 1 mps 680 mmHg 99%
    08:00 +23°C° 1.1 mm 1 mps 680 mmHg 98%
    09:00 +23°C° 1.1 mm 1 mps 681 mmHg 97%
    10:00 +23°C° 1.1 mm 1 mps 681 mmHg 97%
    11:00 +23°C° 0.8 mm 1 mps 681 mmHg 97%
    12:00 +23°C° 0.8 mm 1 mps 680 mmHg 96%
    13:00 +23°C° 0.8 mm 1 mps 680 mmHg 96%
    14:00 +23°C° 0.8 mm 1 mps 680 mmHg 97%
    15:00 +22°C° 0.8 mm 1 mps 680 mmHg 98%
    16:00 +22°C° 0.8 mm 1 mps 679 mmHg 98%
    17:00 +22°C° 0.7 mm 1 mps 680 mmHg 98%
    18:00 +22°C° 0.7 mm 1 mps 680 mmHg 98%
    19:00 +21°C° 0.7 mm 1 mps 680 mmHg 98%
    20:00 +21°C° 0.3 mm 1 mps 680 mmHg 98%
    21:00 +21°C° 0.3 mm 1 mps 681 mmHg 98%
    22:00 +19°C° 0.3 mm 2 mps 681 mmHg 97%
    23:00 +20°C° 0.1 mm 1 mps 681 mmHg 97%

    23 July, Tuesday

    Time Temperature Precipitation Wind Pressure Humidity
    00:00 +20°C° 0.1 mm 1 mps 680 mmHg 96%
    01:00 +20°C° 0.1 mm 1 mps 680 mmHg 95%
    02:00 +20°C° 0.1 mm 1 mps 680 mmHg 95%
    03:00 +20°C° 0.1 mm 1 mps 680 mmHg 95%
    04:00 +20°C° 0.1 mm 1 mps 680 mmHg 95%
    05:00 +21°C° 0 mm 1 mps 680 mmHg 94%
    06:00 +21°C° 0 mm 1 mps 680 mmHg 93%
    07:00 +21°C° 0 mm 1 mps 681 mmHg 92%
    08:00 +23°C° 0 mm 1 mps 681 mmHg 83%
    09:00 +25°C° 0 mm 1 mps 682 mmHg 73%
    10:00 +27°C° 0 mm 1 mps 682 mmHg 63%
    11:00 +27°C° 0 mm 2 mps 682 mmHg 63%
    12:00 +27°C° 0 mm 2 mps 681 mmHg 63%
    13:00 +27°C° 0 mm 2 mps 681 mmHg 63%
    14:00 +27°C° 0 mm 2 mps 681 mmHg 65%
    15:00 +27°C° 0 mm 1 mps 680 mmHg 66%
    16:00 +26°C° 0 mm 1 mps 680 mmHg 67%
    17:00 +25°C° 0 mm 1 mps 680 mmHg 75%
    18:00 +24°C° 0 mm 1 mps 680 mmHg 82%
    19:00 +20°C° 0 mm 0 mps 680 mmHg 90%
    20:00 +20°C° 0 mm 0 mps 680 mmHg 91%
    21:00 +20°C° 0 mm 0 mps 680 mmHg 91%
    22:00 +19°C° 0 mm 0 mps 681 mmHg 92%
    23:00 +20°C° 0 mm 0 mps 681 mmHg 92%
    Show more